Regional Weather Roundup
Issued by NWS Sterling, VA

Home | Current Version | Previous Version | Text Only | Print | Product List | Glossary On
Versions: 1 2 3 4 5 6 7 8 9 10 11 12 13 14 15 16 17 18 19 20 21 22 23 24 25 26 27
000
ASUS41 KLWX 231511
RWRLWX

REGIONAL WEATHER ROUNDUP
NATIONAL WEATHER SERVICE BALTIMORE MD/WASHINGTON DC
1100 AM EDT FRI JUN 23 2017

Note: "FAIR" indicates few or no clouds below 12,000 feet
with no significant weather and/or obstructions to visibility.
 TC=TEMPERATURE CELSIUS

 * =Non NWS site. Station does not report precipitation (e.g. rain,
    snow, etc.), thunder, or fog.

DCZ001-MDZ009-015-VAZ040>042-051-053>054-231600-
WASHINGTON METRO

CITY           SKY/WX    TMP DP  RH WIND       PRES   REMARKS
WASHINGTON NAT PTSUNNY   82  75  79 S16G25    29.82F
DULLES         PTSUNNY   82  72  71 SW14G22   29.81F
ANDREWS AFB    CLOUDY    79  73  80 SW14G22   29.82F
FT BELVOIR     CLOUDY    82  72  72 S7G17     29.82F
QUANTICO       PTSUNNY   83  74  74 SW8G17    29.84F
COLLEGE PARK*  CLOUDY    79  72  79 S7        29.81F
LEESBURG*      MOSUNNY  N/A N/A N/A S12       29.83S
MANASSAS*      PTSUNNY   82  73  74 SW12      29.83F
GAITHERSBURG*  CLOUDY    79  73  82 SW9       29.84F

$$

MDZ006>007-011-014-231600-
BALTIMORE METRO

CITY           SKY/WX    TMP DP  RH WIND       PRES   REMARKS
BWI AIRPORT    CLOUDY    77  74  90 SW9G18    29.81F
MD SCIENCE CTR   N/A     79  73  82 MISG      29.81F
MARTIN STATE   CLOUDY    77  75  94 S8        29.83F
ANNAPOLIS      CLOUDY    78  75  90 SW9       29.82F
FORT MEADE*    CLOUDY    75  72  88 SW7       29.84F

$$

MDZ012-015-019>023-231600-
MARYLAND EASTERN SHORE

CITY           SKY/WX    TMP DP  RH WIND       PRES   REMARKS
OCEAN CITY     CLOUDY    77  72  84 SW12      29.90F
SALISBURY      CLOUDY    76  75  97 S13       29.89F
BAY BRIDGE AP* CLOUDY    77  73  88 SW12G18   29.83F
CAMBRIDGE*     CLOUDY    77  73  88 S8G16     29.86F
EASTON*        PTSUNNY   77  73  88 SW14G20   29.89F

$$

MDZ017>025-231600-
SOUTHERN MARYLAND

CITY           SKY/WX    TMP DP  RH WIND       PRES   REMARKS
PATUXENT RIVER CLOUDY    79  73  82 SW14G22   29.85F
ST INIGOES     PTSUNNY   79  74  84 SW17G25   29.86F
LEONARDTOWN*   CLOUDY    79  72  78 SW10G22   29.88S

$$

MDZ003>005-231600-
NORTH CENTRAL MARYLAND

CITY           SKY/WX    TMP DP  RH WIND       PRES   REMARKS
FREDERICK*     CLOUDY    81  73  78 SW12      29.84S
HAGERSTOWN APT CLOUDY    76  71  85 S10G17    29.80S
WESTMINSTER*   CLOUDY    79  72  78 SW13      29.82S

$$

MDZ501>502-231600-
WESTERN MARYLAND

CITY           SKY/WX    TMP DP  RH WIND       PRES   REMARKS
OAKLAND*       NOT AVBL
CUMBERLAND*    PTSUNNY   77  72  83 S5        29.83F

$$

VAZ025>031-231600-
SHENANDOAH VALLEY

CITY           SKY/WX    TMP DP  RH WIND       PRES   REMARKS
WINCHESTER*    MOSUNNY   79  70  73 SW8       29.81F
FRONT ROYAL*   SUNNY     82  72  69 SW10      29.81F
LURAY*         CLOUDY    81  72  74 SW15G21   29.84S
NEW MARKET*    CLOUDY    81  70  68 S10G17    29.82F
STAUNTON*      CLOUDY    78  70  77 SW14G20   29.90F
WAYNESBORO*    CLOUDY    77  71  82 SW8G18    29.91S

$$

WVZ021-048>050-054>055-231600-
EASTERN WEST VIRGINIA PANHANDLE

CITY           SKY/WX    TMP DP  RH WIND       PRES   REMARKS
MARTINSBURG    PTSUNNY   79  71  76 S8        29.79F
PETERSBURG*    PTSUNNY   83  73  70 CALM      29.82S

$$

VAZ036>039-050-231600-
CENTRAL FOOTHILLS

CITY           SKY/WX    TMP DP  RH WIND       PRES   REMARKS
CHARLOTTESVILL CLOUDY    81  73  76 S13       29.86F
CULPEPER*      MOSUNNY   83  74  76 SW15G21   29.83F
ORANGE*        CLOUDY    81  72  74 S15G26    29.85F
GORDONSVILLE*  CLOUDY    81  74  79 SW17G25   29.85F
WARRENTON*     PTSUNNY   83  71  66 SW12G20   29.83F

$$

VAZ055>057-231600-
NORTH AND CENTRAL PIEDMONT

CITY           SKY/WX    TMP DP  RH WIND       PRES   REMARKS
FREDERICKSBRG* CLOUDY    82  74  77 SW26G33   29.84F
STAFFORD*      PTSUNNY   81  75  83 SW10G22   29.88F

$$

NCZ024-NYZ072-PAZ021-071-VAZ022-071-231600-
OTHER REGIONAL OBSERVATIONS

CITY           SKY/WX    TMP DP  RH WIND       PRES   REMARKS
NEW YORK CITY  CLOUDY    80  73  79 W5        29.80F
PHILADELPHIA   CLOUDY    75  71  87 S17       29.81F
PITTSBURGH     CLOUDY    74  71  91 SW13      29.74F
ROANOKE        PTSUNNY   79  71  76 S6        29.95S
RICHMOND       PTSUNNY   79  73  82 SW13      29.89F
RALEIGH        CLOUDY    80  75  84 SW16      29.98F

$$

ANZ530>537-231600-
MARINE OBSERVATIONS

STATION/POSITION TIME  TEMP    WIND        PRES
                       AIR SEA DIR/SP/G
                 (UTC) (F)     (DEG/KT/KT) (MB)
THOMAS PT LIGHT  1500   77 78  220/ 16/ 20   N/A
BALT KEY BRIDGE  1448   76     210/  9/ 11 1009.1F
COVE POINT       1448   77     250/ 16/ 25 1011.4F
LEWISETTA        1448   78 78  230/ 19/ 25 1011.3F
SOLOMONS ISLAND  1448   78 77  230/ 19/ 26   N/A
PINEY POINT      1448          250/ 10/ 15   N/A

$$





USA.gov is the U.S. government's official web portal to all federal, state and local government web resources and services.